When you browse on this site, cookies collect data to enhance your experience and personalize the content and advertising you see.
Visit our Privacy Policy to learn more. By continuing to use the site, you agree to this use of cookies and data.
  • In Latvia
  • List of Countries
  • For 7 days
  • Water Temperature
  • Satellite Maps
  • Weather Map
  • Weather Widgets
  • user-avatar
    Login

    Hourly Weather Ludza

    Today, 21 July, Sunday

    Time Temperature Precipitation Wind Pressure Humidity
    00:00 +13°C° 0 mm 0 mps 749 mmHg 90%
    01:00 +13°C° 0 mm 0 mps 750 mmHg 90%
    02:00 +12°C° 0 mm 0 mps 750 mmHg 91%
    03:00 +13°C° 0 mm 0 mps 750 mmHg 90%
    04:00 +13°C° 0 mm 0 mps 750 mmHg 90%
    05:00 +13°C° 0 mm 0 mps 750 mmHg 89%
    06:00 +15°C° 0 mm 0 mps 750 mmHg 83%
    07:00 +17°C° 0 mm 0 mps 750 mmHg 76%
    08:00 +20°C° 0 mm 0 mps 750 mmHg 68%
    09:00 +21°C° 0 mm 0 mps 750 mmHg 63%
    10:00 +23°C° 0 mm 0 mps 750 mmHg 58%
    11:00 +25°C° 0 mm 0 mps 750 mmHg 52%
    12:00 +25°C° 0 mm 0 mps 750 mmHg 50%
    13:00 +25°C° 0 mm 0 mps 750 mmHg 48%
    14:00 +26°C° 0 mm 0 mps 750 mmHg 44%
    15:00 +27°C° 0 mm 1 mps 750 mmHg 46%
    16:00 +27°C° 0 mm 1 mps 749 mmHg 47%
    17:00 +26°C° 0 mm 1 mps 749 mmHg 49%
    18:00 +24°C° 0 mm 1 mps 749 mmHg 58%
    19:00 +22°C° 0 mm 1 mps 749 mmHg 67%
    20:00 +20°C° 0 mm 1 mps 748 mmHg 76%
    21:00 +19°C° 0 mm 1 mps 749 mmHg 77%
    22:00 +19°C° 0 mm 1 mps 749 mmHg 79%
    23:00 +17°C° 0 mm 2 mps 749 mmHg 81%

    Tomorrow, 22 July, Monday

    Time Temperature Precipitation Wind Pressure Humidity
    00:00 +16°C° 0 mm 2 mps 749 mmHg 83%
    01:00 +16°C° 0 mm 2 mps 748 mmHg 85%
    02:00 +16°C° 0 mm 2 mps 748 mmHg 87%
    03:00 +16°C° 0.1 mm 2 mps 748 mmHg 87%
    04:00 +16°C° 0.1 mm 2 mps 748 mmHg 88%
    05:00 +16°C° 0.1 mm 2 mps 748 mmHg 88%
    06:00 +16°C° 0.7 mm 2 mps 748 mmHg 88%
    07:00 +18°C° 0.7 mm 1 mps 748 mmHg 88%
    08:00 +19°C° 0.7 mm 1 mps 748 mmHg 88%
    09:00 +19°C° 0.7 mm 1 mps 748 mmHg 88%
    10:00 +19°C° 0.7 mm 1 mps 747 mmHg 88%
    11:00 +20°C° 0.7 mm 1 mps 747 mmHg 88%
    12:00 +20°C° 0.9 mm 1 mps 747 mmHg 89%
    13:00 +19°C° 0.9 mm 2 mps 747 mmHg 90%
    14:00 +19°C° 0.9 mm 2 mps 747 mmHg 92%
    15:00 +18°C° 1.1 mm 2 mps 747 mmHg 93%
    16:00 +18°C° 1.1 mm 2 mps 746 mmHg 95%
    17:00 +17°C° 1.1 mm 2 mps 746 mmHg 97%
    18:00 +16°C° 1.7 mm 1 mps 746 mmHg 97%
    19:00 +16°C° 1.7 mm 1 mps 746 mmHg 98%
    20:00 +16°C° 1.7 mm 1 mps 746 mmHg 98%
    21:00 +16°C° 0.8 mm 1 mps 746 mmHg 98%
    22:00 +16°C° 0.8 mm 1 mps 746 mmHg 97%
    23:00 +16°C° 0.8 mm 1 mps 746 mmHg 97%

    Day after tomorrow, 23 July, Tuesday

    Time Temperature Precipitation Wind Pressure Humidity
    00:00 +16°C° 0.1 mm 1 mps 746 mmHg 97%
    01:00 +15°C° 0.1 mm 2 mps 746 mmHg 97%
    02:00 +15°C° 0.1 mm 2 mps 746 mmHg 97%
    03:00 +15°C° 0 mm 2 mps 746 mmHg 97%
    04:00 +15°C° 0 mm 2 mps 747 mmHg 97%
    05:00 +15°C° 0 mm 2 mps 747 mmHg 97%
    06:00 +16°C° 0 mm 2 mps 747 mmHg 94%
    07:00 +17°C° 0 mm 2 mps 747 mmHg 91%
    08:00 +18°C° 0 mm 3 mps 747 mmHg 88%
    09:00 +20°C° 0 mm 3 mps 747 mmHg 77%
    10:00 +22°C° 0 mm 3 mps 747 mmHg 66%
    11:00 +25°C° 0 mm 3 mps 747 mmHg 55%
    12:00 +25°C° 0 mm 3 mps 747 mmHg 54%
    13:00 +26°C° 0 mm 3 mps 747 mmHg 52%
    14:00 +26°C° 0 mm 3 mps 747 mmHg 50%
    15:00 +26°C° 0 mm 3 mps 747 mmHg 52%
    16:00 +26°C° 0 mm 3 mps 747 mmHg 53%
    17:00 +26°C° 0 mm 2 mps 747 mmHg 55%
    18:00 +24°C° 0 mm 2 mps 747 mmHg 62%
    19:00 +21°C° 0 mm 2 mps 747 mmHg 68%
    20:00 +20°C° 0 mm 1 mps 747 mmHg 75%
    21:00 +19°C° 0 mm 1 mps 747 mmHg 77%
    22:00 +18°C° 0 mm 1 mps 748 mmHg 79%
    23:00 +16°C° 0 mm 1 mps 748 mmHg 81%

    24 July, Wednesday

    Time Temperature Precipitation Wind Pressure Humidity
    00:00 +15°C° 0 mm 1 mps 748 mmHg 82%
    01:00 +15°C° 0 mm 1 mps 748 mmHg 83%
    02:00 +14°C° 0 mm 1 mps 748 mmHg 85%
    03:00 +14°C° 0 mm 1 mps 748 mmHg 84%
    04:00 +14°C° 0 mm 1 mps 748 mmHg 83%
    05:00 +14°C° 0 mm 1 mps 749 mmHg 83%
    06:00 +16°C° 0 mm 1 mps 749 mmHg 78%
    07:00 +19°C° 0 mm 1 mps 749 mmHg 74%
    08:00 +21°C° 0 mm 1 mps 749 mmHg 69%
    09:00 +22°C° 0 mm 1 mps 749 mmHg 64%
    10:00 +24°C° 0 mm 1 mps 750 mmHg 58%
    11:00 +26°C° 0 mm 1 mps 750 mmHg 53%
    12:00 +26°C° 0 mm 1 mps 750 mmHg 52%
    13:00 +26°C° 0 mm 1 mps 750 mmHg 51%
    14:00 +27°C° 0 mm 2 mps 750 mmHg 50%
    15:00 +26°C° 0.1 mm 2 mps 750 mmHg 55%
    16:00 +26°C° 0.1 mm 2 mps 750 mmHg 59%
    17:00 +26°C° 0.1 mm 2 mps 750 mmHg 63%
    18:00 +24°C° 0.1 mm 1 mps 750 mmHg 70%
    19:00 +22°C° 0.1 mm 1 mps 750 mmHg 78%
    20:00 +21°C° 0.1 mm 1 mps 750 mmHg 85%
    21:00 +20°C° 0 mm 1 mps 750 mmHg 86%
    22:00 +19°C° 0 mm 1 mps 751 mmHg 87%
    23:00 +18°C° 0 mm 1 mps 751 mmHg 88%

    25 July, Thursday

    Time Temperature Precipitation Wind Pressure Humidity
    00:00 +16°C° 0 mm 1 mps 751 mmHg 87%
    01:00 +16°C° 0 mm 1 mps 751 mmHg 87%
    02:00 +15°C° 0 mm 1 mps 752 mmHg 86%
    03:00 +15°C° 0 mm 1 mps 752 mmHg 88%
    04:00 +15°C° 0 mm 1 mps 752 mmHg 90%
    05:00 +15°C° 0 mm 1 mps 752 mmHg 92%
    06:00 +18°C° 0 mm 1 mps 752 mmHg 86%
    07:00 +20°C° 0 mm 1 mps 753 mmHg 81%
    08:00 +21°C° 0 mm 2 mps 753 mmHg 75%
    09:00 +23°C° 0 mm 2 mps 753 mmHg 69%
    10:00 +25°C° 0 mm 2 mps 753 mmHg 62%
    11:00 +26°C° 0 mm 2 mps 753 mmHg 55%
    12:00 +27°C° 0 mm 2 mps 753 mmHg 54%
    13:00 +27°C° 0 mm 2 mps 753 mmHg 52%
    14:00 +28°C° 0 mm 2 mps 753 mmHg 50%
    15:00 +28°C° 0 mm 2 mps 753 mmHg 52%
    16:00 +27°C° 0 mm 2 mps 753 mmHg 55%
    17:00 +27°C° 0 mm 2 mps 753 mmHg 57%
    18:00 +26°C° 0 mm 2 mps 753 mmHg 64%
    19:00 +24°C° 0 mm 2 mps 753 mmHg 72%
    20:00 +22°C° 0 mm 1 mps 753 mmHg 79%
    21:00 +21°C° 0 mm 1 mps 753 mmHg 80%
    22:00 +20°C° 0 mm 1 mps 753 mmHg 82%
    23:00 +19°C° 0 mm 1 mps 754 mmHg 83%

    26 July, Friday

    Time Temperature Precipitation Wind Pressure Humidity
    00:00 +19°C° 0 mm 1 mps 754 mmHg 85%
    01:00 +18°C° 0 mm 1 mps 754 mmHg 87%
    02:00 +18°C° 0 mm 1 mps 754 mmHg 88%
    03:00 +18°C° 0 mm 1 mps 754 mmHg 89%
    04:00 +18°C° 0 mm 1 mps 754 mmHg 89%
    05:00 +18°C° 0 mm 1 mps 754 mmHg 90%
    06:00 +20°C° 0 mm 1 mps 754 mmHg 83%
    07:00 +22°C° 0 mm 1 mps 754 mmHg 76%
    08:00 +24°C° 0 mm 1 mps 754 mmHg 69%
    09:00 +25°C° 0 mm 2 mps 754 mmHg 63%
    10:00 +26°C° 0 mm 2 mps 754 mmHg 58%
    11:00 +28°C° 0 mm 2 mps 754 mmHg 52%
    12:00 +28°C° 0 mm 2 mps 753 mmHg 51%
    13:00 +29°C° 0 mm 2 mps 753 mmHg 50%
    14:00 +29°C° 0 mm 2 mps 753 mmHg 49%
    15:00 +29°C° 0 mm 2 mps 752 mmHg 52%
    16:00 +29°C° 0 mm 2 mps 752 mmHg 55%
    17:00 +29°C° 0 mm 2 mps 752 mmHg 58%
    18:00 +27°C° 0 mm 2 mps 752 mmHg 64%
    19:00 +25°C° 0 mm 1 mps 752 mmHg 71%
    20:00 +24°C° 0 mm 1 mps 751 mmHg 78%
    21:00 +23°C° 0 mm 1 mps 751 mmHg 81%
    22:00 +22°C° 0 mm 1 mps 751 mmHg 85%
    23:00 +21°C° 0 mm 1 mps 751 mmHg 88%
    Show more